DLH29P ESGG-EDDV

Flight info

Callsign DLH29P
Flight time N/A
Altitude 36000
Route VADIN M852 ALASA/N0457F350 M852 EKERN/N0459F360 N125 ELSOB/N0458F350 N850 NIE NIE1L
Aircraft A320/M-SDE3FGHIRWY/LB1

Departure

Time 2026-05-07 15:21
Airport Göteborg Landvetter Airport (ESGG)

Arrival

Time N/A
Airport Hannover Airport (EDDV)
Time Latitude Longitude Altitude Speed Heading
2026-05-07 14:48 57.67005 12.29533 516 ft 0 kts 116°
2026-05-07 14:51 57.67006 12.29533 516 ft 0 kts 116°
2026-05-07 15:12 57.67009 12.29520 516 ft 2 kts 116°
2026-05-07 15:12 57.67016 12.29492 516 ft 2 kts 116°
2026-05-07 15:12 57.67023 12.29463 516 ft 2 kts 109°
2026-05-07 15:12 57.67029 12.29434 516 ft 2 kts 92°
2026-05-07 15:13 57.67026 12.29404 516 ft 2 kts 52°
2026-05-07 15:13 57.67013 12.29383 516 ft 2 kts 27°
2026-05-07 15:13 57.66998 12.29370 516 ft 2 kts 25°
2026-05-07 15:13 57.66982 12.29356 516 ft 2 kts 25°
2026-05-07 15:14 57.66967 12.29343 516 ft 2 kts 25°
2026-05-07 15:14 57.66951 12.29329 516 ft 2 kts 25°
2026-05-07 15:14 57.66950 12.29328 516 ft 0 kts 25°
2026-05-07 15:16 57.66951 12.29329 516 ft 0 kts 23°
2026-05-07 15:16 57.66971 12.29319 516 ft 3 kts 332°
2026-05-07 15:16 57.66986 12.29287 516 ft 4 kts 302°
2026-05-07 15:17 57.66998 12.29244 516 ft 5 kts 300°
2026-05-07 15:17 57.67039 12.29194 516 ft 8 kts 357°
2026-05-07 15:17 57.67087 12.29227 516 ft 8 kts 26°
2026-05-07 15:17 57.67159 12.29292 516 ft 13 kts 26°
2026-05-07 15:18 57.67234 12.29360 516 ft 11 kts 26°
2026-05-07 15:18 57.67312 12.29431 516 ft 10 kts 26°
2026-05-07 15:18 57.67372 12.29478 516 ft 9 kts
2026-05-07 15:18 57.67434 12.29389 516 ft 14 kts 300°
2026-05-07 15:19 57.67460 12.29276 515 ft 10 kts 281°
2026-05-07 15:19 57.67459 12.29147 514 ft 11 kts 262°
2026-05-07 15:19 57.67423 12.29031 515 ft 11 kts 221°
2026-05-07 15:19 57.67373 12.28972 515 ft 6 kts 208°
2026-05-07 15:20 57.67327 12.28929 515 ft 16 kts 206°
2026-05-07 15:20 57.66973 12.28606 513 ft 94 kts 206°
2026-05-07 15:20 57.66201 12.27902 510 ft 150 kts 206°
2026-05-07 15:20 57.65146 12.26942 806 ft 174 kts 208°
2026-05-07 15:21 57.64068 12.25956 1745 ft 171 kts 209°
2026-05-07 15:21 57.62930 12.24921 2184 ft 196 kts 209°
2026-05-07 15:21 57.61634 12.23729 2530 ft 219 kts 209°
2026-05-07 15:21 57.60106 12.22742 2940 ft 247 kts 191°
2026-05-07 15:22 57.58339 12.22414 3697 ft 262 kts 184°
2026-05-07 15:22 57.56503 12.22301 4721 ft 265 kts 181°
2026-05-07 15:22 57.54651 12.22227 5766 ft 267 kts 182°
2026-05-07 15:22 57.52783 12.22010 6760 ft 271 kts 185°
2026-05-07 15:23 57.50890 12.21679 7703 ft 275 kts 187°
2026-05-07 15:23 57.48976 12.21288 8661 ft 279 kts 188°
2026-05-07 15:23 57.47037 12.20867 9610 ft 283 kts 189°
2026-05-07 15:23 57.45090 12.20250 10495 ft 285 kts 198°
2026-05-07 15:24 57.43862 12.19379 11051 ft 286 kts 209°
2026-05-07 15:24 57.42161 12.17321 11536 ft 303 kts 224°
2026-05-07 15:24 57.40623 12.14445 11822 ft 325 kts 228°
2026-05-07 15:24 57.38994 12.11320 12036 ft 349 kts 227°
2026-05-07 15:25 57.36658 12.06881 12350 ft 374 kts 227°